铱星星座 178星 (IRIDIUM 178)

导读 | 豆包AI

IRIDIUM 178是由美国发射的铱星系列卫星,于2023年5月20日发射入轨。该卫星隶属于铱星通信系统,主要用于为全球提供无缝覆盖的卫星通信服务,支持海事、航空、偏远地区等场景下的语音和数据传输,进一步完善了铱星星座的通信能力,保障全球卫星通信网络的稳定运行。

基本信息
目录编号:
56729
目录名称:
IRIDIUM 178
国际标识:
2023-068V
轨道中心:
EARTH
卫星名称:
铱星星座 178星
卫星全名:
铱星星座 178星 (IRIDIUM 178)
卫星状态:
在轨 (已飞行1075 天)
发射日期:
2023-05-20 UTC
国别 :
美国 (US)
星等 :
--
轨道信息
数据来源 国际轨道数据
星历时间: 2026-04-29T13:35:24+0800
11小时前
查看轨道信息
半长轴: 7006.738km
偏心率: 0.0002336
轨道倾角: 86.656°
近地点辐角 79.001°
升交点赤经 45.809°
平近点角 281.147°
近地点: 626.964km
远地点: 630.238km
周期: 97.282分钟
每日圈数: 14.802294
详细信息
平衡模式:
三轴稳定
覆盖范围:
全球
运营商:
铱星通信公司
运营商所在国:
美国
制造商(研发单位):
阿莱尼亚宇航公司
制造商所在国:
意大利
使用方式:
暂无
卫星简介
铱星(Iridium)是由共66个运作中的通信卫星组成的卫星通信系统。这个系统原本规划77个通信卫星,所以用原子序数为77的铱元素来命名。铱卫星允许人们使用手持型电子设备进行全球性的语音及数据通讯。该卫星仍在工作。
2D轨道图
3D轨道图
轨道高度分析图
轨道倾角分析图
轨道综合分析图
查看轨道综合分析图